Wind_Speed
10 13 18 19 18 15 10 9 12 11 15 12 11 12 12 10 9 11 10 9 10 9 9 9 9 10 10 9 8 8 7 7 7 8 8 9 10 9 10 14 16 14 14
11 8 11 18 19 20 17 13 12 11 16 15 14 14 14 12 13 13 11 12 12 10 10 10 11 11 11 12 11 10 10 10 9 9 9 9 8 9 11 13 12 12 12
10 8 4 4 14 19 21 20 18 18 16 19 18 16 16 14 15 14 12 14 14 12 13 11 12 12 11 12 12 11 10 10 10 10 10 10 11 11 11 12 13 13 12
6 7 8 7 14 14 17 22 24 21 20 20 24 20 17 16 16 16 14 13 13 13 13 13 12 15 14 13 12 11 10 11 11 11 11 12 12 12 12 10 11 12 12
7 6 8 10 12 14 14 17 27 27 24 25 22 22 25 19 18 16 15 16 15 14 15 15 16 15 14 15 14 13 12 12 13 14 15 16 16 16 15 14 12 12 13
6 5 6 9 8 13 12 17 24 26 26 27 26 25 27 18 19 19 19 18 17 15 15 14 15 15 15 15 15 16 16 16 17 18 18 16 16 16 16 15 14 13 14
9 9 8 7 8 8 14 15 16 22 29 34 32 30 28 30 22 21 20 19 20 19 17 18 18 18 17 17 18 18 19 19 17 17 17 18 18 17 17 17 17 17 16
14 11 11 11 9 11 12 14 15 22 23 26 31 30 30 34 29 24 22 20 21 18 18 21 21 20 19 19 19 20 20 19 18 17 18 21 23 22 21 20 20 21 21
19 20 19 17 16 16 15 18 19 20 21 22 25 29 25 24 29 29 29 26 24 21 23 23 22 22 22 21 21 20 20 21 20 18 22 24 28 27 25 24 24 28 25
20 20 23 24 24 21 21 21 22 21 24 24 25 26 26 28 31 29 28 31 33 29 28 27 26 24 24 24 21 20 19 21 20 20 23 26 24 22 26 26 29 26 24
26 29 29 28 27 28 27 26 27 26 25 28 28 30 30 30 31 30 30 30 35 36 35 33 29 28 26 26 25 23 22 23 22 23 24 23 21 19 18 19 22 25 25
31 32 32 35 37 35 33 33 31 31 30 29 29 31 30 31 31 32 31 33 32 35 34 35 33 31 30 29 28 28 26 24 26 26 23 22 21 19 19 20 22 25 26
35 36 38 38 38 39 40 40 38 37 35 33 34 32 34 30 31 33 35 35 36 34 31 34 35 35 33 33 33 31 28 28 28 27 22 22 20 19 18 17 18 20 21
40 40 41 42 43 42 43 44 44 43 43 42 38 37 37 35 33 33 34 35 34 36 31 31 36 34 36 35 33 32 30 31 30 27 22 21 19 19 17 15 16 17 18
46 46 46 47 46 48 48 49 48 46 48 46 46 43 42 39 38 36 36 36 35 36 31 29 30 36 37 36 32 32 33 33 31 25 21 21 19 17 18 18 18 18 18
51 51 51 51 51 50 52 53 52 50 52 50 50 49 48 44 45 40 39 39 39 36 33 32 30 32 34 34 31 32 31 29 26 21 22 21 20 17 20 20 20 21 20
55 55 55 55 55 55 53 54 53 54 56 56 53 58 50 51 46 48 44 42 40 38 34 34 35 33 32 32 30 30 27 24 24 23 23 22 20 17 19 22 21 24 24
53 53 52 53 54 56 56 57 55 55 57 56 57 59 63 57 59 51 51 45 43 39 37 33 40 36 33 32 30 30 28 26 27 26 23 21 18 18 21 22 23 25 24
54 56 57 55 54 56 56 56 57 57 56 57 59 59 60 57 61 54 55 60 45 41 38 38 39 38 35 31 31 32 30 27 27 25 22 22 21 20 22 22 24 24 24
58 57 55 55 55 54 56 57 56 56 57 56 57 59 60 59 64 54 52 40 46 45 39 40 41 42 37 34 33 32 31 28 26 24 23 24 23 24 22 26 26 26 24
53 50 52 52 52 51 53 54 56 54 54 56 54 53 55 54 52 51 55 44 57 51 44 42 43 46 39 35 33 37 35 32 29 27 25 27 26 23 27 29 29 26 25
38 44 46 46 48 45 47 48 52 53 50 48 51 51 50 49 45 52 59 56 50 51 47 45 44 44 41 39 39 39 37 34 30 30 29 31 30 31 32 31 30 32 27
46 49 35 34 35 35 37 40 44 47 42 43 46 47 50 46 43 49 53 47 49 52 54 48 46 43 41 41 41 41 39 37 35 33 32 33 34 35 37 35 35 30 31
45 32 24 22 24 28 29 28 31 38 40 38 39 43 45 42 38 38 45 39 38 39 57 50 48 45 42 47 43 41 39 36 37 36 37 38 39 38 39 38 37 36 35
42 23 17 19 18 22 25 28 29 29 29 31 34 35 35 36 34 37 35 35 32 35 58 53 49 48 47 50 47 45 42 41 40 39 38 39 41 43 44 40 39 37 35
24 18 14 16 17 19 24 22 23 22 25 28 30 32 34 35 35 32 32 35 30 44 54 54 51 51 52 53 53 49 47 43 44 42 41 41 42 41 44 47 47 41 38
Wind_Direction
308 291 244 231 232 227 212 230 249 249 193 206 219 224 228 215 215 227 232 227 221 225 223 228 239 240 249 260 272 286 294 303 320 325 336 352 9 11 2 357 359 9 15
343 320 244 226 223 232 226 220 228 237 200 211 217 222 231 228 233 229 228 236 233 239 240 236 248 253 258 261 264 273 285 295 305 315 320 324 326 319 320 327 336 347 353
358 333 293 241 234 235 232 218 211 218 215 220 206 221 230 233 242 243 237 238 234 237 246 247 244 252 258 265 269 272 284 293 301 302 301 301 303 305 311 314 318 324 327
349 334 337 273 254 246 247 237 214 216 228 224 206 220 226 235 239 242 241 238 244 246 250 248 252 250 255 261 267 270 275 284 286 290 294 295 295 298 302 305 309 311 311
354 334 310 321 257 249 237 230 224 220 227 229 221 226 226 234 241 238 239 238 239 245 253 256 257 255 258 258 261 268 268 271 277 283 285 288 292 293 295 298 297 300 304
320 337 328 312 300 255 238 231 235 231 231 231 229 220 228 227 239 233 231 230 234 236 245 248 254 255 256 260 261 264 268 269 275 282 288 289 287 290 296 298 299 299 299
309 304 300 310 302 281 248 249 242 242 248 241 233 237 236 239 241 235 236 238 238 237 240 246 248 254 259 262 267 268 268 270 276 284 289 291 288 287 290 293 294 295 292
285 292 292 284 277 278 265 253 259 254 253 252 242 244 251 238 241 230 232 236 243 242 246 251 257 257 258 259 264 268 270 273 276 283 288 291 290 287 289 289 289 286 286
273 281 283 281 279 263 256 261 261 256 256 253 246 244 242 236 238 246 244 243 244 247 248 252 255 257 259 259 261 266 273 277 279 284 285 287 296 278 285 285 283 284 283
289 289 278 279 275 273 268 259 258 258 257 254 244 237 237 239 243 248 253 246 243 251 254 257 258 255 259 262 262 266 272 273 278 289 295 293 297 291 284 287 281 279 277
285 282 280 278 279 271 267 265 265 258 251 254 254 250 252 250 250 252 254 252 247 251 258 258 259 257 255 258 265 264 262 264 272 281 290 294 292 292 286 288 290 289 283
284 279 274 275 273 274 268 263 261 265 263 253 255 260 257 256 257 254 252 255 249 252 255 257 257 255 255 258 259 261 261 266 271 281 291 286 288 289 289 289 290 286 280
286 281 277 273 267 267 268 265 263 259 261 263 257 251 255 253 252 254 255 255 257 258 259 258 255 255 255 256 258 261 266 267 275 284 290 285 289 291 289 297 297 295 292
283 280 277 275 272 269 265 263 262 261 259 258 260 257 253 252 248 249 252 251 253 261 262 262 254 252 255 255 258 266 266 268 273 280 281 285 285 284 292 295 296 296 295
279 276 275 273 271 270 266 263 261 260 259 260 257 256 254 249 250 247 248 251 249 254 258 262 253 246 251 253 256 265 263 264 266 268 273 278 272 280 286 288 294 292 296
281 278 276 272 270 267 266 264 263 261 259 256 257 257 256 253 251 247 249 251 251 250 250 255 251 248 252 252 255 259 259 259 256 254 258 265 266 272 278 286 291 295 296
282 279 278 275 270 266 264 262 262 261 260 259 258 255 252 247 249 248 246 248 250 248 246 245 248 247 250 253 251 254 259 254 250 249 246 249 258 274 286 289 299 304 299
284 279 273 269 267 264 261 260 260 260 258 259 261 263 265 273 244 248 243 246 251 247 242 238 246 243 244 248 249 250 249 253 254 247 244 249 255 269 280 290 297 311 308
287 281 276 270 263 262 259 257 258 258 259 258 262 264 267 268 267 259 242 254 244 247 245 238 240 241 242 244 244 247 250 247 244 244 248 255 260 264 274 284 292 305 307
290 283 277 268 264 259 258 255 254 255 258 259 260 262 264 265 263 269 272 235 241 244 243 245 238 239 239 237 237 243 242 242 242 249 255 261 265 271 272 277 289 300 308
294 286 277 271 262 256 256 254 253 251 253 257 260 261 263 267 267 263 263 249 241 233 234 239 240 238 238 235 234 235 238 242 244 251 255 259 268 274 275 278 286 291 298
304 299 283 271 261 255 253 252 252 252 252 252 252 253 258 260 261 257 255 258 240 233 230 233 236 235 233 233 231 231 235 241 245 252 259 263 266 270 271 276 280 283 286
305 304 284 266 258 248 249 250 248 247 244 244 246 252 255 254 251 248 249 255 254 246 229 228 231 232 230 232 230 230 236 241 243 250 258 258 259 262 270 275 277 280 280
309 303 279 256 251 247 242 243 245 238 236 243 247 246 249 246 236 236 242 245 247 257 228 225 228 228 230 236 233 235 235 241 248 251 257 263 262 264 268 272 278 281 285
314 301 281 257 261 245 238 243 244 237 237 244 244 244 241 239 232 231 232 249 252 245 222 225 227 227 229 235 236 238 241 243 246 253 257 261 264 268 273 274 275 280 283
286 287 293 261 257 252 248 247 242 232 235 237 234 234 236 227 230 236 224 233 229 222 220 228 226 228 230 235 238 240 242 247 250 255 256 258 260 265 272 271 272 277 276
Height
5908 5906 5906 5908 5911 5914 5916 5918 5921 5923 5925 5928 5929 5932 5935 5936 5936 5937 5937 5938 5939 5941 5941 5942 5943 5943 5944 5944 5944 5943 5943 5942 5941 5941 5940 5939 5939 5938 5937 5936 5934 5933 5932
5906 5904 5903 5905 5908 5911 5913 5916 5918 5920 5922 5925 5926 5929 5932 5933 5933 5934 5935 5936 5937 5939 5940 5940 5941 5941 5942 5942 5942 5942 5942 5942 5941 5940 5939 5938 5937 5936 5935 5934 5934 5933 5932
5906 5904 5903 5903 5906 5908 5909 5911 5914 5916 5918 5921 5923 5925 5928 5929 5931 5931 5932 5933 5934 5936 5937 5938 5938 5939 5939 5939 5940 5940 5941 5940 5939 5938 5936 5936 5935 5934 5933 5932 5931 5931 5930
5905 5905 5903 5903 5904 5905 5906 5907 5910 5911 5914 5916 5919 5921 5923 5925 5927 5928 5929 5930 5931 5933 5934 5935 5935 5937 5937 5937 5937 5937 5937 5937 5936 5936 5935 5934 5934 5933 5931 5930 5929 5928 5928
5905 5904 5903 5902 5902 5902 5902 5904 5906 5908 5910 5912 5914 5917 5919 5921 5923 5925 5926 5927 5929 5930 5932 5932 5933 5933 5934 5934 5934 5934 5933 5933 5933 5933 5932 5931 5931 5930 5929 5928 5927 5925 5925
5904 5903 5902 5901 5900 5900 5900 5900 5902 5905 5907 5909 5912 5914 5915 5917 5918 5920 5921 5923 5924 5926 5927 5929 5929 5929 5930 5930 5930 5930 5930 5929 5929 5929 5929 5928 5927 5926 5926 5926 5925 5924 5922
5900 5900 5900 5899 5899 5898 5898 5899 5900 5901 5902 5903 5906 5908 5910 5913 5915 5915 5916 5918 5920 5921 5922 5924 5925 5925 5926 5927 5927 5927 5926 5926 5925 5925 5925 5925 5924 5923 5923 5922 5921 5920 5920
5899 5898 5897 5896 5896 5895 5896 5896 5897 5897 5897 5897 5900 5901 5904 5907 5910 5910 5911 5913 5915 5917 5918 5919 5920 5921 5921 5922 5922 5922 5922 5923 5922 5921 5921 5921 5920 5919 5918 5918 5917 5916 5915
5892 5894 5894 5893 5894 5893 5892 5891 5892 5892 5891 5893 5894 5896 5898 5900 5901 5904 5907 5908 5910 5911 5912 5913 5915 5916 5917 5917 5916 5917 5919 5919 5918 5917 5917 5916 5915 5914 5913 5912 5911 5910 5910
5890 5889 5890 5889 5889 5889 5889 5887 5886 5887 5887 5888 5889 5891 5892 5894 5896 5899 5900 5902 5904 5905 5906 5908 5909 5910 5911 5912 5911 5912 5913 5914 5914 5913 5912 5911 5910 5908 5907 5906 5904 5904 5903
5886 5885 5884 5883 5882 5883 5883 5883 5883 5882 5882 5882 5883 5884 5886 5889 5891 5892 5893 5895 5896 5899 5901 5902 5904 5905 5905 5905 5906 5906 5906 5908 5909 5907 5907 5907 5905 5903 5901 5899 5899 5897 5896
5879 5877 5876 5875 5875 5875 5876 5875 5875 5875 5876 5877 5877 5877 5880 5882 5884 5886 5887 5887 5889 5891 5893 5895 5897 5898 5898 5899 5899 5899 5899 5901 5901 5901 5901 5901 5900 5899 5897 5894 5893 5892 5892
5870 5868 5866 5866 5866 5866 5867 5867 5867 5868 5868 5869 5870 5871 5870 5874 5875 5876 5878 5881 5881 5882 5885 5886 5888 5890 5890 5891 5891 5892 5894 5894 5894 5895 5895 5895 5895 5894 5893 5891 5890 5889 5887
5859 5857 5856 5855 5855 5856 5856 5856 5856 5858 5858 5860 5861 5862 5863 5864 5866 5868 5869 5870 5872 5873 5876 5879 5879 5881 5882 5883 5884 5886 5888 5887 5888 5889 5890 5888 5890 5890 5889 5887 5886 5884 5883
5847 5845 5844 5843 5843 5842 5844 5844 5845 5847 5847 5849 5850 5852 5852 5856 5857 5859 5859 5862 5864 5864 5868 5870 5870 5873 5874 5875 5877 5879 5880 5880 5881 5882 5883 5883 5884 5884 5883 5882 5881 5879 5877
5833 5832 5830 5829 5828 5828 5828 5829 5832 5835 5834 5836 5839 5840 5843 5845 5846 5848 5851 5853 5854 5857 5860 5860 5862 5864 5866 5869 5871 5872 5873 5874 5875 5875 5875 5877 5878 5877 5878 5877 5875 5873 5872
5817 5816 5814 5812 5812 5812 5813 5814 5817 5819 5820 5822 5825 5824 5814 5831 5835 5838 5839 5842 5846 5849 5853 5854 5855 5855 5859 5863 5864 5866 5868 5869 5869 5869 5870 5870 5872 5872 5871 5871 5870 5868 5867
5798 5795 5795 5794 5793 5794 5798 5798 5802 5803 5805 5808 5809 5812 5811 5820 5818 5825 5828 5833 5839 5840 5844 5849 5847 5848 5850 5854 5857 5859 5860 5863 5864 5864 5865 5866 5865 5865 5865 5865 5865 5864 5862
5781 5777 5774 5774 5775 5775 5778 5782 5785 5787 5789 5795 5797 5799 5801 5803 5811 5806 5814 5813 5829 5833 5834 5838 5842 5841 5842 5846 5849 5851 5854 5856 5857 5860 5862 5862 5861 5859 5859 5860 5859 5860 5857
5762 5757 5754 5753 5754 5758 5760 5764 5768 5771 5773 5777 5782 5783 5786 5793 5794 5798 5797 5807 5817 5823 5824 5829 5833 5833 5833 5837 5842 5845 5847 5850 5853 5855 5856 5857 5856 5855 5855 5854 5854 5854 5852
5743 5737 5733 5732 5734 5739 5743 5745 5749 5755 5758 5760 5765 5767 5771 5774 5780 5788 5792 5798 5804 5806 5810 5817 5824 5826 5826 5830 5835 5834 5839 5842 5845 5847 5849 5849 5850 5850 5849 5848 5849 5849 5847
5726 5721 5714 5713 5715 5720 5725 5728 5732 5739 5745 5750 5753 5758 5762 5766 5771 5774 5779 5786 5791 5795 5799 5805 5814 5818 5816 5819 5823 5827 5830 5834 5838 5839 5843 5843 5844 5843 5841 5842 5842 5842 5842
5713 5705 5698 5697 5701 5705 5710 5714 5718 5722 5729 5736 5741 5744 5748 5753 5759 5763 5766 5771 5776 5781 5789 5794 5803 5809 5807 5811 5814 5817 5822 5826 5828 5830 5834 5834 5834 5834 5833 5834 5834 5834 5835
5700 5691 5688 5689 5693 5695 5698 5702 5705 5708 5715 5723 5729 5733 5735 5739 5744 5747 5753 5756 5764 5771 5778 5784 5793 5797 5799 5801 5804 5808 5813 5819 5822 5822 5823 5825 5825 5825 5824 5825 5824 5824 5826
5689 5685 5682 5685 5687 5688 5691 5693 5697 5702 5708 5714 5717 5721 5725 5729 5733 5737 5741 5748 5752 5757 5766 5774 5780 5784 5788 5793 5794 5797 5803 5805 5809 5813 5813 5816 5817 5816 5816 5817 5815 5815 5816
5683 5679 5678 5680 5682 5684 5685 5686 5692 5698 5702 5706 5708 5712 5716 5720 5724 5728 5732 5739 5744 5750 5755 5761 5767 5773 5777 5781 5785 5788 5792 5795 5798 5801 5801 5805 5806 5808 5808 5808 5806 5807 5805